Regional Weather Roundup
Issued by NWS

Home | Current Version | Previous Version | Text Only | Print | Product List | Glossary On
Versions: 1 2 3 4 5 6 7 8 9 10 11 12 13 14 15 16 17 18 19 20 21 22 23 24 25 26 27 28 29 30 31 32 33 34 35 36 37 38 39 40 41 42 43 44 45 46 47 48 49 50
000
ASUS46 KPQR 241410
RWROR

OREGON REGIONAL WEATHER ROUNDUP
NATIONAL WEATHER SERVICE PORTLAND OR
700 AM PDT MON APR 24 2017

NOTE: "FAIR" INDICATES FEW OR NO CLOUDS BELOW 12,000 FEET WITH
NO SIGNIFICANT WEATHER AND/OR OBSTRUCTIONS TO VISIBILITY.

ORZ001>013-241500-
NORTHWEST OREGON


CITY           SKY/WX    TMP DP  RH WIND       PRES   REMARKS
ASTORIA        LGT RAIN  45  42  89 E14       29.63F
NEWPORT        DRIZZLE   50  50 100 SW15G23   29.68F
PORTLAND       LGT RAIN  45  43  93 SE10      29.70F
VANCOUVER WA   LGT RAIN  46  45  96 E8        29.70F
SCAPPOOSE      LGT RAIN  46  44  93 E8        29.69F
HILLSBORO      RAIN      45  44  97 SE10      29.68F
AURORA         CLOUDY    46  42  86 E3        29.69F
MCMINNVILLE    LGT RAIN  46  42  86 SE8       29.67F
SALEM          LGT RAIN  46  41  82 S17       29.66F
CORVALLIS      CLOUDY    46  43  87 S6        29.68S
EUGENE         LGT RAIN  47  44  90 S13       29.70S
$$

ORZ021-028-241500-
SOUTHWEST OREGON


CITY           SKY/WX    TMP DP  RH WIND       PRES   REMARKS
NORTH BEND     CLOUDY    52  48  87 SW15G26   29.76R
BROOKINGS      CLOUDY    50  49  96 VRB7      29.87R FOG
ROSEBURG       CLOUDY    47  43  86 CALM      29.75F
SEXTON SUMMIT  FOG       35  35 100 S15G24    29.74R VSB 1/4 WCI  25
MEDFORD        CLOUDY    46  45  96 N3        29.81R
$$

ORZ014>016-041-241500-
COLUMBIA GORGE


CITY           SKY/WX    TMP DP  RH WIND       PRES   REMARKS
TROUTDALE      LGT RAIN  46  43  89 E14       29.70F
HOOD RIVER     DRIZZLE   43  41  93 CALM      29.74F
THE DALLES     LGT RAIN  46  44  93 NW3       29.74F
$$

ORZ029>031-041-044-049-050-061>064-502-503-505>511-241500-
EASTERN OREGON


CITY           SKY/WX    TMP DP  RH WIND       PRES   REMARKS
REDMOND        LGT RAIN  41  32  70 S14       29.69S
BEND           LGT RAIN  39  34  81 S9        29.70F WCI  33
PRINEVILLE     CLOUDY    43  34  70 CALM      29.69F
KLAMATH FALLS  MOCLDY    38  38 100 SW8       29.79F WCI  32
LAKEVIEW       CLOUDY    36  32  87 S14       29.80S WCI  27
HERMISTON      LGT RAIN  47  46  97 S5        29.74S
PENDLETON      LGT RAIN  44  43  96 SE6       29.73F FOG
JOHN DAY       DRIZZLE   40  38  93 CALM      29.72S
MEACHAM        LGT SNOW  34  30  85 CALM      29.70S FOG
LA GRANDE      CLOUDY    41  37  87 NW6       29.71S
BAKER CITY     CLOUDY    40  38  93 W7        29.69F
BURNS          LGT RAIN  37  34  89 W9        29.74S WCI  30
ROME             N/A     42  39  89 S17       29.72R
ONTARIO        LGT RAIN  47  43  86 SW6       29.74R
$$



USA.gov is the U.S. government's official web portal to all federal, state and local government web resources and services.